Regional Weather Roundup
Issued by NWS

Home | Current Version | Previous Version | Graphics & Text | Print | Product List | Glossary On
Versions: 1 2 3 4 5 6 7 8 9 10 11 12 13 14 15 16 17 18 19 20 21 22 23 24 25 26 27 28 29 30 31 32 33 34 35 36 37 38 39 40 41 42 43 44 45 46 47 48 49 50
000
ASUS43 KLSX 021707
RWRMO

WEATHER SUMMARY FOR MISSOURI
NATIONAL WEATHER SERVICE SPRINGFIELD MO
1200 PM CDT SUN AUG 02 2015

NOTE: "FAIR" INDICATES FEW OR NO CLOUDS BELOW 12,000 FEET WITH NO
       SIGNIFICANT WEATHER AND/OR OBSTRUCTIONS TO VISIBILITY.
       CURRENT SKY AND/OR WEATHER CONDITIONS ARE NOT AVAILABLE FOR
       CHILLICOTHE AND FARMINGTON.

MOZ001>031-035>038-043-044-053-054-021800-
...NORTHERN AND WESTERN MISSOURI...

CITY           SKY/WX    TMP DP  RH WIND       PRES   REMARKS
KANSAS CTY INT MOSUNNY   86  72  62 SW12      29.92S HX  92
KANSAS C DTWN  SUNNY     89  68  49 W14       29.91R HX  93
LEE`S SUMMIT   SUNNY     88  68  51 W13G20    29.93F HX  91
ST JOSEPH      MOSUNNY   85  76  74 SW9       29.89F HX  94
CHILLICOTHE      N/A     88  72  58 SW9       29.90S HX  94
KIRKSVILLE     SUNNY     84  71  65 SW7       29.90S

$$
MOZ066>068-077>081-088>096-101>105-021800-
...SOUTHWEST MISSOURI...

CITY           SKY/WX    TMP DP  RH WIND       PRES   REMARKS
SPRINGFIELD    SUNNY     90  63  40 SW8G17    29.99F HX  91
JOPLIN         SUNNY     91  65  41 S14       29.98F HX  93

$$
MOZ032>034-039>042-045>050-055>058-069>072-021800-
...CENTRAL MISSOURI...

CITY           SKY/WX    TMP DP  RH WIND       PRES   REMARKS
COLUMBIA       SUNNY     86  70  58 SW10      29.94F HX  90
JEFFERSON CITY SUNNY     88  65  46 SW7       29.93F HX  90
ROLLA          SUNNY     87  70  56 SW12      29.96F HX  92
SEDALIA        SUNNY     88  69  53 SW14      29.95S HX  92
WHITEMAN AFB   SUNNY     88  68  50 SW14      29.92F HX  91
WARRENSBURG    SUNNY     88  64  45 SW12G20   29.92F
OSAGE BEACH    SUNNY     88  66  48 SW9       29.97F HX  90

$$
MOZ051-052-059>065-021800-
...EAST CENTRAL MISSOURI...

CITY           SKY/WX    TMP DP  RH WIND       PRES   REMARKS
ST LOUIS INTL  MOSUNNY   92  69  47 W10       29.94F HX  97
SPIRIT OF STL  MOSUNNY   89  72  56 SW9       29.92F HX  96
ST CHARLES     SUNNY     89  70  53 SW7       29.91F HX  94

$$
MOZ072>076-082>087-097>100-106>115-021800-
...SOUTH CENTRAL AND SOUTHEAST MISSOURI...

CITY           SKY/WX    TMP DP  RH WIND       PRES   REMARKS
CAPE GIRARDEAU SUNNY     87  73  62 S7        29.97F HX  94
FARMINGTON     SUNNY     88  68  51 SW5       30.02F HX  91
POPLAR BLUFF   PTSUNNY   86  73  65 SW5       29.96F HX  93
WEST PLAINS    MOSUNNY   88  65  46 W7        30.02F HX  90

$$


USA.gov is the U.S. government's official web portal to all federal, state and local government web resources and services.